[[{"header":{"parameterUnit":"m.s-1","parameterCategory":1,"la1":30.2991,"la2":30.254,"lo1":-89.0895,"lo2":-89.0444,"dy":0.0017,"dx":0.0017,"nx":28,"ny":28,"refTime":"2026-02-25T03:00:00:Z","depth":0,"parameterNumber":2,"parameterNumberName":"U-component_of_WINDS"},"data":[0,0,0,0,0,0,0,0,0,0,0,0,0,0,0,0,0,0,0,0,0,0,0,0,0,0,0,0,0,0,0,0,0,0,0,0,0,0,0,0,0,0,0,0,0,0,0,0,0,0,0,0,0,0,0,0,0,0,0.9889,0.989,0,0.9943,0.9943,0.9944,0.994,0.9939,0.9938,0.9937,0.9995,0.9998,1.0,0,0,0,0,0,0,0,0,0,0,0,0,0,0.9785,0.9787,0.9889,0.989,0.989,0.9943,0.9943,0.9944,0.994,0.9939,0.9938,0.9937,0.9995,0.9997,1.0,0,0,0,0,0,0,0,0,0,0,0,0,0,0.9833,0.9787,0.9889,0.9894,0.9895,0.9943,0.9943,0.9944,0.994,0.9939,0.9938,0.9936,0.9994,0.9997,1.0001,1.0047,0,0,1.0011,1.0013,0,0,0,0,0,0,0,0,0.9831,0.9837,0.9893,0.9894,0.9895,0.9933,0.9928,0.9979,0.994,0.9923,0.9937,0.9936,0.9976,0.9981,0.9994,1.0049,1.0052,1.0011,1.0014,1.0015,1.0016,0,0,0,0,0,0,0,0.9827,0.9835,0.991,0.9894,0.9895,0.9895,0.99,0.9938,0.9956,0.9925,0.9924,0.9931,0.9976,0.999,0.9995,1.0053,1.0011,1.0014,1.0017,1.0018,1.0149,1.015,0,0,0,0,0,0,0.9822,0.9832,0.9909,0.9912,0.9859,0.9898,0.9904,0.9922,0.9955,0.9959,0.9932,0.993,0.9985,0.9991,0.9997,1.0054,1.0015,1.0018,1.002,1.0148,1.0149,1.0151,0,0,0,0,0,0,0.982,0.9829,0.9906,0.9872,0.9882,0.9901,0.9921,0.9924,0.9938,0.9961,0.9964,0.9942,0.9984,0.9992,1.0034,1.0056,1.002,1.0023,1.0146,1.0148,1.015,1.0167,0,0,0,0,0,0,0.9817,0.9828,0.9846,0.9872,0.9884,0.9942,0.9923,0.9926,0.9944,0.9942,0.9972,0.9976,0.9984,1.0029,1.0038,1.006,1.0026,1.0144,1.0147,1.0149,1.0165,1.0169,1.0173,0,0,0,0,0,0.9813,0.9849,0.9846,0.9856,0.9905,0.9943,0.995,0.9958,0.9945,0.9963,0.9978,0.9975,1.0051,1.0033,1.0043,1.0066,1.0143,1.0146,1.0149,1.0163,1.0168,1.0173,0,0,0,0,0,0,0.9825,0.9852,0.985,0.9895,0.9917,0.9942,0.9965,0.9964,0.999,0.9988,0.9998,1.0004,1.0047,1.0061,1.004,1.0113,1.0096,1.0101,1.0103,1.0108,1.0113,1.0109,1.0029,0,0,0,0,0,0.9833,0.9861,0.9883,0.9921,0.9931,0.9946,0.9963,0.9967,0.9991,1.0,1.0018,1.0041,1.0071,1.009,1.0118,1.0166,1.0173,1.0187,1.0191,1.0195,1.02,1.0226,1.0233,1.0161,1.0161,1.0161,0,0,0.985,0.9868,0.9885,0.9923,0.9941,0.997,0.9954,0.9986,1.0008,1.0005,1.0046,1.006,1.0086,1.0131,1.0152,1.0144,1.0221,1.0199,1.0201,1.0205,1.023,1.0237,1.0243,1.0163,1.0163,1.0163,0,0,0.9895,0.9911,0.9944,0.9962,0.9987,0.9997,1.0005,1.0031,1.0039,1.008,1.0078,1.0105,1.0155,1.0174,1.0191,1.0242,1.0241,1.0251,1.0275,1.0301,1.0307,1.0312,1.0331,1.0338,1.0256,1.0256,1.0256,0,0.9913,0.9956,0.9962,0.9994,1.0011,1.0008,1.0043,1.0059,1.0094,1.0106,1.0096,1.0159,1.0177,1.0226,1.0239,1.0252,1.0262,1.0249,1.0305,1.031,1.0315,1.0334,1.0341,1.0257,1.0257,1.0257,1.0256,0,0.9977,1.0007,1.0031,1.0063,1.0083,1.0116,1.0127,1.0147,1.0149,1.0159,1.0201,1.0222,1.0254,1.0266,1.0269,1.0316,1.0311,1.0303,1.0286,1.0323,1.0341,1.0348,1.0258,1.0258,1.0258,1.0257,0,0,1.0033,1.0067,1.0076,1.009,1.0118,1.0142,1.0175,1.0205,1.0222,1.0246,1.0274,1.0316,1.0309,1.0327,1.0332,1.0354,1.0395,1.0344,1.0344,1.0353,1.0449,1.0456,1.0464,1.0393,1.0394,1.0395,1.0447,0,1.0082,1.014,1.0146,1.0197,1.0225,1.0223,1.0251,1.0272,1.0282,1.0308,1.032,1.035,1.0338,1.0349,1.0371,1.0385,1.0414,1.0381,1.0421,1.0422,1.0416,1.0473,1.0481,1.0529,1.0454,1.0455,1.0456,0,1.0148,1.0172,1.0226,1.025,1.0262,1.0288,1.0316,1.0341,1.0364,1.037,1.039,1.0391,1.0426,1.0406,1.0454,1.0431,1.0448,1.0457,1.0459,1.0464,1.0443,1.0481,1.0544,1.0552,1.0467,1.0466,1.0465,0,1.0185,1.0231,1.0269,1.0282,1.031,1.0328,1.0341,1.0363,1.0381,1.0406,1.0418,1.0447,1.0463,1.0485,1.0495,1.0479,1.0543,1.0524,1.055,1.055,1.0565,1.0564,1.0633,1.0573,1.0572,1.0572,1.0572,0,1.024,1.0274,1.0286,1.031,1.0348,1.0354,1.0391,1.0403,1.0423,1.0449,1.0448,1.0474,1.0484,1.051,1.0518,1.0557,1.0564,1.0571,1.0573,1.0572,1.0571,1.0584,1.0581,1.0574,1.0574,1.0573,1.0573,0,1.0288,1.0298,1.034,1.0363,1.0369,1.0396,1.0416,1.044,1.0449,1.0483,1.0491,1.0507,1.0538,1.0549,1.0588,1.0592,1.0638,1.0637,1.063,1.0631,1.0657,1.0655,1.0738,1.0749,1.068,1.0681,1.0681,0,1.0324,1.0349,1.0375,1.0392,1.0405,1.0433,1.0451,1.0458,1.0477,1.0505,1.0525,1.0556,1.0582,1.0632,1.0648,1.0677,1.0677,1.0704,1.0681,1.068,1.0679,1.0678,1.0681,1.0708,1.0709,1.071,1.071,0,1.0386,1.0389,1.0415,1.0442,1.0464,1.0486,1.0507,1.0522,1.0532,1.0553,1.0585,1.0605,1.0643,1.0674,1.0704,1.0718,1.0717,1.0717,1.0725,1.0725,1.0721,1.0724,1.0643,1.0715,1.0715,1.0714,1.0714,1.0714,1.043,1.0452,1.0474,1.0503,1.0519,1.0539,1.0562,1.0574,1.06,1.0632,1.0634,1.0669,1.0691,1.0731,1.0746,1.0773,1.0766,1.0777,1.078,1.0783,1.0786,1.0715,1.0779,1.0779,1.0778,1.0778,1.0778,0,1.0493,1.0506,1.0532,1.0562,1.0585,1.0579,1.0602,1.0622,1.0652,1.0673,1.0697,1.0734,1.0764,1.0781,1.0811,1.083,1.083,1.0837,1.0837,1.084,1.079,1.0781,1.0837,1.0837,1.0837,1.0837,1.0837,1.0837,1.0528,1.0567,1.0573,1.0619,1.0632,1.0666,1.068,1.0698,1.0715,1.0755,1.078,1.079,1.0809,1.0841,1.0868,1.0872,1.0884,1.0893,1.0897,1.085,1.0844,1.0838,1.083,1.0895,1.0895,1.0945,1.0945,1.0945]},{"header":{"parameterUnit":"m.s-1","parameterCategory":1,"la1":30.2991,"la2":30.254,"lo1":-89.0895,"lo2":-89.0444,"dy":0.0017,"dx":0.0017,"nx":28,"ny":28,"refTime":"2026-02-25T03:00:00:Z","depth":0,"parameterNumber":3,"parameterNumberName":"V-component_of_WINDS"},"data":[0,0,0,0,0,0,0,0,0,0,0,0,0,0,0,0,0,0,0,0,0,0,0,0,0,0,0,0,0,0,0,0,0,0,0,0,0,0,0,0,0,0,0,0,0,0,0,0,0,0,0,0,0,0,0,0,0,0,7.2194,7.2194,0,7.2227,7.2228,7.2228,7.2206,7.2205,7.2204,7.2203,7.2234,7.2235,7.2237,0,0,0,0,0,0,0,0,0,0,0,0,0,7.2106,7.2108,7.2194,7.2194,7.2195,7.2227,7.2228,7.2228,7.2207,7.2205,7.2204,7.2203,7.2233,7.2235,7.2237,0,0,0,0,0,0,0,0,0,0,0,0,0,7.2142,7.2108,7.2194,7.2188,7.2188,7.2227,7.2228,7.2228,7.2207,7.2205,7.2204,7.2202,7.2232,7.2235,7.2238,7.2284,0,0,7.2245,7.2247,0,0,0,0,0,0,0,0,7.214,7.2146,7.2188,7.2188,7.2188,7.2211,7.2208,7.2247,7.2207,7.2199,7.2203,7.2202,7.2227,7.223,7.224,7.2285,7.2286,7.2246,7.2247,7.2248,7.2249,0,0,0,0,0,0,0,7.2138,7.2144,7.2207,7.2189,7.2189,7.2182,7.2186,7.2215,7.2221,7.22,7.2199,7.2203,7.2227,7.2237,7.224,7.2287,7.2246,7.2248,7.225,7.2251,7.2371,7.2373,0,0,0,0,0,0,7.2136,7.2142,7.2206,7.2208,7.216,7.2185,7.2189,7.2205,7.2221,7.2222,7.2204,7.2202,7.2233,7.2237,7.2241,7.2296,7.2248,7.2251,7.2252,7.2369,7.2371,7.2373,0,0,0,0,0,0,7.2135,7.2142,7.2205,7.2175,7.2182,7.2188,7.2207,7.2207,7.2217,7.2224,7.2225,7.2214,7.2232,7.2237,7.2273,7.2297,7.2252,7.2254,7.2367,7.237,7.2372,7.2406,0,0,0,0,0,0,7.2132,7.2142,7.2161,7.2175,7.2184,7.2238,7.2208,7.2209,7.2222,7.2219,7.2233,7.2234,7.2232,7.227,7.2276,7.23,7.2256,7.2365,7.2369,7.2372,7.2403,7.241,7.2415,0,0,0,0,0,7.2129,7.2168,7.2162,7.2169,7.2208,7.2239,7.2244,7.2241,7.2224,7.2242,7.2247,7.2234,7.2293,7.2274,7.228,7.2305,7.2364,7.2368,7.2371,7.2401,7.2408,7.2415,0,0,0,0,0,0,7.2154,7.217,7.2163,7.2208,7.2223,7.2235,7.2258,7.225,7.2268,7.2265,7.2259,7.2263,7.2301,7.2306,7.2284,7.235,7.2326,7.2331,7.2345,7.2353,7.2359,7.2357,7.2259,0,0,0,0,0,7.2165,7.2191,7.2203,7.2241,7.2249,7.2252,7.2266,7.2263,7.2277,7.2283,7.229,7.2303,7.2325,7.2339,7.2359,7.2404,7.2406,7.2424,7.243,7.2435,7.244,7.2463,7.2471,7.2385,7.2385,7.2385,0,0,7.2187,7.2199,7.2216,7.2246,7.2257,7.2283,7.2258,7.2286,7.2304,7.2287,7.2322,7.2327,7.2341,7.2382,7.24,7.2388,7.2464,7.244,7.2444,7.2446,7.2468,7.2476,7.2483,7.2388,7.2387,7.2387,0,0,7.2242,7.2253,7.2287,7.2299,7.2316,7.2318,7.2326,7.2341,7.2344,7.2379,7.2367,7.2388,7.2425,7.2436,7.2446,7.2505,7.2493,7.2511,7.2543,7.2566,7.2573,7.2579,7.26,7.2607,7.2516,7.2516,7.2516,0,7.2267,7.2307,7.2305,7.2334,7.2348,7.2334,7.2367,7.2378,7.2401,7.241,7.2396,7.2443,7.2452,7.2494,7.2509,7.2518,7.2526,7.251,7.2572,7.2578,7.2584,7.2604,7.2611,7.2518,7.2518,7.2517,7.2517,0,7.2337,7.2365,7.2389,7.2414,7.243,7.2461,7.2462,7.2478,7.2473,7.2476,7.2512,7.2522,7.2544,7.2554,7.2549,7.2596,7.2588,7.2573,7.2548,7.2594,7.2613,7.262,7.2521,7.252,7.2519,7.2519,0,0,7.2409,7.2431,7.244,7.2451,7.2469,7.249,7.252,7.2543,7.2557,7.2572,7.2597,7.2629,7.2616,7.2627,7.2623,7.2644,7.2689,7.2627,7.2627,7.2638,7.2742,7.2753,7.2762,7.2682,7.2683,7.2684,7.274,0,7.2464,7.2519,7.2517,7.2567,7.2592,7.2579,7.2605,7.2618,7.2622,7.2642,7.2645,7.2669,7.2649,7.2656,7.2676,7.268,7.271,7.2676,7.2704,7.2705,7.2701,7.2771,7.2783,7.2836,7.2748,7.2749,7.275,0,7.2537,7.2557,7.261,7.2624,7.2635,7.2658,7.2679,7.2699,7.2713,7.2714,7.2728,7.272,7.2749,7.2724,7.2763,7.274,7.2751,7.2754,7.2756,7.2759,7.273,7.2776,7.2853,7.2861,7.2761,7.276,7.2759,0,7.2584,7.2624,7.266,7.267,7.2688,7.2705,7.2712,7.2725,7.2739,7.2757,7.2766,7.2786,7.2797,7.2812,7.281,7.2791,7.285,7.2824,7.2851,7.2851,7.2864,7.2864,7.2944,7.2871,7.2871,7.2871,7.287,0,7.2646,7.2679,7.2682,7.2705,7.2741,7.2738,7.2773,7.2779,7.2791,7.2813,7.2802,7.2823,7.2819,7.284,7.2838,7.2871,7.2876,7.2877,7.2876,7.2878,7.2878,7.2886,7.2882,7.2873,7.2872,7.2872,7.2872,0,7.2706,7.2709,7.2748,7.2762,7.2766,7.2792,7.2803,7.2824,7.2827,7.2855,7.2862,7.2865,7.2889,7.2889,7.2915,7.2914,7.2954,7.2949,7.295,7.2949,7.2977,7.2974,7.3065,7.3076,7.2996,7.2996,7.2997,0,7.2746,7.2771,7.2788,7.2803,7.2813,7.2837,7.2851,7.2849,7.2864,7.2882,7.2901,7.2924,7.2942,7.2981,7.2985,7.3005,7.3,7.303,7.3003,7.3004,7.3001,7.3,7.3002,7.3036,7.3037,7.3037,7.3038,0,7.2817,7.2817,7.2839,7.2862,7.288,7.2897,7.2913,7.2926,7.2925,7.2942,7.2968,7.2982,7.301,7.3032,7.3052,7.3058,7.3048,7.3047,7.3054,7.3057,7.3057,7.3057,7.2965,7.3045,7.3044,7.3044,7.3043,7.3043,7.2868,7.289,7.2905,7.293,7.2942,7.2957,7.2978,7.2983,7.3005,7.3028,7.3025,7.3053,7.3065,7.309,7.3099,7.3119,7.3109,7.3119,7.3122,7.3125,7.3128,7.3053,7.3123,7.3123,7.3122,7.3122,7.3122,0,7.2938,7.2948,7.2971,7.2994,7.3014,7.3004,7.3021,7.3037,7.3062,7.3076,7.3094,7.3123,7.3145,7.3151,7.3171,7.3187,7.3183,7.3192,7.3191,7.3193,7.3136,7.3128,7.3196,7.3196,7.3195,7.3195,7.3195,7.3195,7.2978,7.3014,7.3016,7.3058,7.3067,7.3096,7.3106,7.312,7.313,7.3163,7.3182,7.3186,7.3196,7.3218,7.3237,7.3238,7.3246,7.3258,7.3257,7.3204,7.3197,7.319,7.3182,7.326,7.326,7.3312,7.3313,7.3313]}]]